Flag for Taiwan Weather past 2 weeks in Kaohsiung, Taiwan

Now
84 °F

Scattered showers. Broken clouds.


Feels Like: 94 °F
Forecast: 72 / 90 °F
Wind: 8 mph from Southwest

Location: Kaohsiung International Airport

Current Time: Aug 20, 2014 at 1:05:53 PM

Latest Report: Aug 20, 2014 at 12:30 PM


Visibility: N/A

Pressure: 29.86 "Hg

Humidity: 79%

Dew point: 77 °F

Location of KaohsiungLocation

Historic Weather in Kaohsiung — Graph

°F

Kaohsiung temperature yesterday

Maximum temperature yesterday: 88 °F (at 12:00 PM)
Minimum temperature yesterday: 77 °F (at 9:30 PM)
Average temperature yesterday: 83 °F

Past Weeks' High & Low Weather Summary

 TemperatureHumidityPressure
High91 °F (Aug 6, 11:30 AM)100% (Aug 8, 3:00 AM)29.92 "Hg (Aug 8, 3:00 AM)
Low75 °F (Aug 13, 8:00 AM)59% (Aug 18, 1:30 PM)29.59 "Hg (Aug 6, 3:30 PM)
Average82 °F87%29.72 "Hg
* Reported Aug 5 12:00 Noon — Aug 20 12:00 Noon, Kaohsiung, Weather by CustomWeather, © 2014

Note: Actual official high and low records may vary slightly from our data, if they occured in-between our weather recording intervals... More about our weather records

Advertising

Kaohsiung weather history for previous 24 hours

 ConditionsComfort  
Time TempWeatherWind HumidityBarometerVisibility
12:00 PM
Aug 20
84 °FSprinkles. Broken clouds.6 mph74%29.89 "Hg6 mi
11:30 AM86 °FScattered showers. Broken clouds.8 mph70%29.89 "HgN/A
10:30 AM86 °FPartly sunny.7 mph66%29.89 "HgN/A
10:00 AM86 °FPartly sunny.9 mph62%29.89 "HgN/A
9:30 AM88 °FBroken clouds.6 mph62%29.86 "HgN/A
9:00 AM86 °FBroken clouds.5 mph70%29.86 "HgN/A
8:30 AM84 °FPartly sunny.8 mph74%29.86 "HgN/A
8:00 AM84 °FBroken clouds.7 mph79%29.86 "HgN/A
7:30 AM81 °FBroken clouds.8 mph84%29.86 "HgN/A
7:00 AM79 °FBroken clouds.6 mph89%29.86 "HgN/A
6:30 AM77 °FBroken clouds.3 mph89%29.89 "HgN/A
6:00 AM77 °FPartly sunny.6 mph89%29.86 "HgN/A
5:00 AM77 °FPartly cloudy.3 mph94%29.86 "HgN/A
4:00 AM77 °FPartly cloudy.3 mph94%29.86 "Hg5 mi
3:00 AM77 °FPartly cloudy.6 mph94%29.83 "HgN/A
2:00 AM77 °FPartly cloudy.6 mph94%29.86 "HgN/A
1:00 AM77 °FPartly cloudy.6 mph94%29.89 "HgN/A
12:00 AM77 °FPartly cloudy.7 mph94%29.89 "HgN/A
11:30 PM
Aug 19
77 °FPartly cloudy.8 mph94%29.92 "HgN/A
11:00 PM77 °FPartly cloudy.9 mph94%29.92 "HgN/A
10:55 PM77 °FPartly cloudy.9 mph94%29.92 "HgN/A
10:30 PM79 °FPartly cloudy.5 mph94%29.92 "HgN/A
10:00 PM79 °FPassing clouds.6 mph89%29.89 "HgN/A
9:30 PM77 °FSprinkles. Partly cloudy.12 mph94%29.92 "Hg4 mi
9:00 PM81 °FPartly cloudy.5 mph89%29.89 "HgN/A
8:30 PM81 °FPartly cloudy.3 mph89%29.89 "HgN/A
8:00 PM79 °FPartly cloudy.3 mph94%29.89 "HgN/A
7:30 PM81 °FPartly cloudy.6 mph89%29.86 "HgN/A
7:00 PM79 °FPartly cloudy.5 mph94%29.86 "HgN/A
6:30 PM81 °FPartly cloudy.5 mph89%29.86 "HgN/A
6:00 PM81 °FScattered showers. Broken clouds.6 mph89%29.86 "HgN/A
5:30 PM82 °FSprinkles. Partly sunny.7 mph84%29.83 "Hg4 mi
5:00 PM81 °FSprinkles. Broken clouds.5 mph84%29.83 "HgN/A
4:30 PM79 °FRain showers. Broken clouds.18 mph89%29.86 "Hg1 mi
4:00 PM84 °FSprinkles. Partly sunny.13 mph66%29.83 "Hg6 mi
3:52 PM86 °FSprinkles. Broken clouds.13 mph70%29.83 "Hg5 mi
3:30 PM88 °FBroken clouds.13 mph66%29.83 "HgN/A
3:00 PM88 °FBroken clouds.15 mph66%29.83 "HgN/A
2:30 PM88 °FBroken clouds.13 mph66%29.83 "HgN/A
2:00 PM88 °FPartly sunny.15 mph62%29.83 "HgN/A
1:30 PM88 °FBroken clouds.14 mph66%29.86 "HgN/A
1:00 PM88 °FPartly sunny.14 mph66%29.86 "HgN/A
Weather by CustomWeather, © 2014

See weather overviewHow to use our weather pages